Location: 相模原市立博物館
(35.5593°N, 139.3931°E)
Time: 10:17:48
(UTC+09:00)

ITAMSAT 1 - Visible Passes

Search period start: 18 August 2022 00:00
Search period end: 28 August 2022 00:00
Orbit: 784 x 796 km, 98.9° (Epoch: 16 August)

Date Brightness Start Highest point End Pass type
(mag) Time Alt. Az. Time Alt. Az. Time Alt. Az.
18 Aug 9.2 19:35:38 10° SSW 19:40:24 36° W 19:45:12 10° NNW visible
19 Aug 8.0 19:05:34 10° S 19:10:46 72° WSW 19:16:01 10° NNW visible
20 Aug 10.4 20:18:16 10° SW 20:21:01 14° W 20:23:46 10° WNW visible
21 Aug 9.6 19:46:46 10° SSW 19:51:14 28° W 19:55:43 10° NW visible
22 Aug 8.4 19:16:26 10° S 19:21:33 56° W 19:26:42 10° NNW visible
23 Aug 7.7 18:46:48 10° SSE 18:52:00 74° ENE 18:57:14 10° N visible
23 Aug 10.6 20:30:38 10° WSW 20:31:54 11° W 20:33:10 10° WNW visible
24 Aug 9.9 19:58:02 10° SSW 20:02:04 23° W 20:06:08 10° NW visible
25 Aug 8.8 19:27:23 10° S 19:32:21 44° W 19:37:21 10° NNW visible
26 Aug 7.7 18:57:32 10° SSE 19:02:46 88° WSW 19:08:01 10° NNW visible
27 Aug 10.2 20:09:28 10° SW 20:12:55 18° W 20:16:24 10° NW visible
